Voltar ao catálogo

STARLINK-34359

AtivoComunicaçõesVLEO
NORAD 64280·PAYLOAD·🇺🇸 United States

Lançado Jun 4, 2025 de Vandenberg Space Force Base

Loading…

Próximas Passagens (próximas 24 horas)

TLE

AtualizadoSource: CelesTrak SupGP

Época: Sep 15, 2026, 03:37 UTC

1 64280C 25120AA  26258.15118056  .00038122  00000+0  11263-2 0  2588
2 64280  53.1587 314.6996 0001170  92.6047 179.5725 15.34371987    11

Acompanhe STARLINK-34359 em tempo real com AllMySat

Download on the App Store